[Iaude] MPEC E170: 2024 ES3 [a=1.82,e=0.44,i=7.9,H=24.7]
    mpec at cfa.harvard.edu 
    mpec at cfa.harvard.edu
       
    Wed Mar 13 08:52:46 EDT 2024
    
    
  
M.P.E.C. 2024-E170                               Issued 2024 March 13, 12:51 UT
     The Minor Planet Electronic Circulars contain information on unusual
         minor planets, routine data on comets and natural satellites,
         and occasional editorial announcements.  They are published
    on behalf of Division F of the International Astronomical Union by the
          Minor Planet Center, Smithsonian Astrophysical Observatory,
                          Cambridge, MA 02138, U.S.A.
			  
             Prepared using the Tamkin Foundation Computer Network
                              MPC at CFA.HARVARD.EDU
            URL https://www.minorplanetcenter.net/    ISSN 1523-6714
                                    2024 ES3                                    
Observations:
     K24E03S*1C2024 03 12.23446209 04 03.940+35 00 10.30         20.30GVEE170G96
     K24E03S 1C2024 03 12.24011409 04 10.110+35 00 38.45               VEE170G96
     K24E03S 1C2024 03 12.24574209 04 16.291+35 01 06.20               VEE170G96
     K24E03S 1C2024 03 12.25137009 04 22.469+35 01 33.06         20.34GVEE170G96
     K24E03S mC2024 03 12.27556409 04 49.062+35 03 29.99         20.25GVEE170I52
     K24E03S mC2024 03 12.27608509 04 49.602+35 03 32.47         20.15GVEE170I52
     K24E03S  C2024 03 12.27655709 04 49.616+35 03 29.01         19.9 GVEE170H01
     K24E03S mC2024 03 12.27661209 04 50.178+35 03 34.85         20.34GVEE170I52
     K24E03S mC2024 03 12.27712909 04 50.761+35 03 37.26         20.25GVEE170I52
     K24E03S  C2024 03 12.28043009 04 53.892+35 03 47.40         20.1 GVEE170H01
     K24E03S  C2024 03 12.29107909 05 05.651+35 04 37.76         20.2 GVEE170H01
     K24E03S  C2024 03 12.30148609 05 17.164+35 05 26.51         19.8 GVEE170H01
     K24E03S mC2024 03 12.35743309 06 19.850+35 09 51.20         19.55GVEE170I52
     K24E03S mC2024 03 12.35797309 06 20.410+35 09 53.60         20.13GVEE170I52
     K24E03S KC2024 03 12.82981509 15 38.73 +35 46 25.8          19.9 GVEE170587
     K24E03S KC2024 03 12.83053109 15 39.54 +35 46 29.1                VEE170587
     K24E03S KC2024 03 12.83124909 15 40.36 +35 46 32.4                VEE170587
     K24E03S KC2024 03 12.83877209 15 48.59 +35 47 12.2          19.6 GVEE170104
     K24E03S KC2024 03 12.84407009 15 54.53 +35 47 35.8          20.2 GVEE170104
     K24E03S KC2024 03 12.89146209 16 46.60 +35 51 03.2          20.4 GVEE170L01
     K24E03S IC2024 03 12.89294509 16 48.26 +35 51 09.7          20.3 GVEE170L01
     K24E03S KC2024 03 12.89442909 16 49.89 +35 51 15.8          20.3 GVEE170L01
     K24E03S KB2024 03 12.89520109 16 52.83 +35 51 21.5          20.7 GXEE170I93
     K24E03S KC2024 03 12.89616009 16 51.81 +35 51 23.2          20.0 GVEE170L01
     K24E03S KC2024 03 12.89739609 16 53.17 +35 51 28.6          20.3 GVEE170L01
     K24E03S KB2024 03 12.90620109 17 05.00 +35 52 09.9          20.4 GXEE170I93
     K24E03S KB2024 03 12.90931209 17 08.62 +35 52 26.6          19.5 GXEE170958
     K24E03S KB2024 03 12.91307309 17 12.76 +35 52 42.8          19.6 GXEE170958
     K24E03S KB2024 03 12.91683409 17 16.92 +35 52 58.2          19.7 GXEE170958
     K24E03S KC2024 03 13.09166509 20 43.81 +36 05 34.0          20.4 GVEE170H21
     K24E03S KC2024 03 13.09446509 20 46.90 +36 05 46.6          20.5 GVEE170H21
     K24E03S KC2024 03 13.09735509 20 50.11 +36 05 59.2          20.4 GVEE170H21
Observer details:
104 San Marcello Pistoiese.  Observers P. Bacci, M. Maestripieri.  Measurers
    P. Bacci, L. Tesi, G. Fagioli.  0.60-m F4 Reflector + CCD.
587 Sormano.  Observers F. Manca, A. Testa.  Measurer F. Manca.  0.5-m f/6.8
    reflector + CCD.
958 Observatoire de Dax.  Observer P. Dupouy.  0.50-m f/4.5 Reflector + CMO.
G96 Mt. Lemmon Survey.  Observer D. Rankin.  Measurers T. Beuden, V. F.
    Carvajal, D. Fay, J. B. Fazekas, D. C. Fuls, A. R. Gibbs, A. D. Grauer, H.
    Groeller, J. K. Hogan, R. A. Kowalski, S. M. Larson, G. J. Leonard, D.
    Rankin, R. L. Seaman, F. C. Shelly, K. W. Wierzchos.  1.5-m reflector +
    10K CCD.
H01 Magdalena Ridge Observatory, Socorro.  Observers W. H. Ryan, E. V. Ryan.
    Measurer W. H. Ryan.  2.4-m f/8.9 Ritchey-Chretien + CCD.
H21 Astronomical Research Observatory, Westfield.  Observer R. Holmes.
    Measurers T. Linder, R. Holmes, L. Horn.  0.76-m f/3.0 astrograph + CCD.
I52 Steward Observatory, Mt. Lemmon Station.  Observer H. Groeller.  Measurers
    T. Beuden, V. F. Carvajal, D. Fay, J. B. Fazekas, D. C. Fuls, A. R. Gibbs,
    A. D. Grauer, H. Groeller, J. K. Hogan, R. A. Kowalski, S. M. Larson, G.
    J. Leonard, D. Rankin, R. L. Seaman, F. C. Shelly, K. W. Wierzchos.  1.0-m
    prime focus + CCD.
I93 St Pardon de Conques.  Observer F. Losse.  0.40-m f/3.7 reflector + CCD.
L01 Visnjan Observatory, Tican.  Observers K. Korlevic, I. Lyon.  Measurer K.
    Korlevic.  1.0-m f/2.9 reflector + CCD.
Orbital elements:
2024 ES3                                                 Earth MOID = 0.0331 AU
Epoch 2024 Mar. 31.0 TT = JDT 2460400.5                 Veres                   
M  14.25512              (2000.0)            P               Q                  
n   0.40300227     Peri.  348.41700     -0.87362656     -0.48482528             
a   1.8152275      Node   162.39832     +0.45668524     -0.84636912             
e   0.4385445      Incl.    7.88526     +0.16797387     -0.22046260             
P   2.45           H   24.75          G   0.15           U   8                  
Residuals in seconds of arc
240312 G96  0.2+  0.0     240312 H01  0.3-  0.2-    240312 I93  0.2+  0.1+
240312 G96  0.1-  0.4+    240312 I52  0.3+  0.2+    240312 L01  0.2-  0.4-
240312 G96  0.0   0.5+    240312 I52  0.3-  0.2+    240312 L01  0.4-  0.3-
240312 G96  0.1+  0.1-    240312 587  0.9-  0.3+    240312 I93  0.2-  0.0
240312 I52  0.3+  0.1+    240312 587  0.7-  0.3+    240312 958  0.4+  0.8+
240312 I52  0.1-  0.0     240312 587  0.5-  0.3+    240312 958  0.1+  0.5+
240312 H01  0.2-  0.0     240312 104  0.3-  0.9+    240312 958  0.0   0.5-
240312 I52  0.1-  0.1-    240312 104  0.4+  0.4+    240313 H21  0.1+  0.3-
240312 I52  0.0   0.2-    240312 L01  0.2-  0.1+    240313 H21  0.1-  0.0
240312 H01  0.1-  0.0     240312 L01  0.0   0.1+    240313 H21  0.0   0.0
240312 H01  0.2-  0.1-    240312 L01  0.2-  0.2-
Ephemeris:
2024 ES3                 a,e,i = 1.82, 0.44, 8                   q = 1.0192
Date    TT    R. A. (2000) Decl.     Delta      r    Elong.  Phase     V
2024 02 12    04 53 17.2 -07 07 55   0.1258  1.0289   106.0    67.2    22.7
...
2024 02 27    05 54 16.7 +07 19 49   0.07772 1.0195   110.1    65.8    21.6
...
2024 03 06    07 16 42.3 +22 54 36   0.06108 1.0258   122.0    55.1    20.7
...
2024 03 12    08 59 33.3 +34 40 07   0.05988 1.0357   133.3    44.3    20.4
2024 03 13    09 18 52.6 +35 59 15   0.06084 1.0377   134.8    42.8    20.4
2024 03 14    09 38 10.1 +37 03 11   0.06213 1.0399   136.1    41.5    20.4
...
2024 03 20    11 19 47.5 +38 47 38   0.07555 1.0551   140.4    37.0    20.8
...
2024 03 28    12 39 39.8 +35 16 37   0.1036  1.0812   141.7    34.9    21.4
...
2024 04 12    13 36 32.4 +27 44 44   0.1717  1.1449   143.4    31.4    22.6
M. P. C. Staff               (C) Copyright 2024 MPC           M.P.E.C. 2024-E170
    
    
More information about the Iaude
mailing list